Regional Weather Roundup
Issued by NWS Sterling, VA

Home | Current Version | Previous Version | Graphics & Text | Print | Product List | Glossary On
Versions: 1 2 3 4 5 6 7 8 9 10 11 12 13 14 15 16 17 18 19 20 21 22 23 24 25 26 27 28 29 30 31 32 33 34 35 36 37 38 39 40 41 42 43 44 45 46 47 48 49
000
ASUS41 KLWX 041110
RWRLWX

REGIONAL WEATHER ROUNDUP
NATIONAL WEATHER SERVICE BALTIMORE MD/WASHINGTON DC
600 AM EST WED MAR 04 2015

Note: "FAIR" indicates few or no clouds below 12,000 feet
with no significant weather and/or obstructions to visibility.
 TC=TEMPERATURE CELSIUS

 * =Non NWS site. Station does not report precipitation (e.g. rain,
    snow, etc.), thunder, or fog.

DCZ001-MDZ009-015-VAZ040>042-051-053>054-041200-
WASHINGTON METRO

CITY           SKY/WX    TMP DP  RH WIND       PRES   REMARKS
WASHINGTON NAT CLOUDY    39  35  86 S8        29.87R
DULLES         CLOUDY    37  35  92 S9        29.87R
ANDREWS AFB    CLOUDY    39  38  98 SW9       29.86R
FT BELVOIR     CLOUDY    39  37  93 VRB1      29.88R
QUANTICO       FOG       37  34  89 SW6       29.90R VSB 1/2
COLLEGE PARK*  MOCLDY    39  37  93 CALM      29.86S
LEESBURG*      CLOUDY    37  37 100 S3        29.87R
MANASSAS*      CLOUDY    37  37 100 SW3       29.89R
GAITHERSBURG*  CLOUDY    36  34  93 SW3       29.89R

$$

MDZ006>007-011-014-041200-
BALTIMORE METRO

CITY           SKY/WX    TMP DP  RH WIND       PRES   REMARKS
BWI AIRPORT    CLOUDY    38  36  92 SW7       29.84R FOG
MD SCIENCE CTR   N/A     38  36  92 MISG      29.85R
MARTIN STATE   CLOUDY    36  36 100 CALM      29.87R FOG
ANNAPOLIS      CLOUDY    39  36  89 SW5       29.86R
FORT MEADE*    CLOUDY    37  36  93 SW6       29.86S

$$

MDZ012-015-019>023-041200-
MARYLAND EASTERN SHORE

CITY           SKY/WX    TMP DP  RH WIND       PRES   REMARKS
OCEAN CITY     CLOUDY    44  44 100 W7        29.92R FOG
SALISBURY      CLOUDY    44  41  89 W6        29.92R
BAY BRIDGE AP*   N/A     39  37  93 SW5       29.88R
CAMBRIDGE*     CLOUDY    43  41  93 S6        29.89S
EASTON*        LGT RAIN  41  41 100 SW13      29.90R

$$

MDZ017>025-041200-
SOUTHERN MARYLAND

CITY           SKY/WX    TMP DP  RH WIND       PRES   REMARKS
PATUXENT RIVER CLOUDY    41  38  89 NW9       29.91R
ST INIGOES     CLOUDY    44  40  85 CALM      29.91R FOG
LEONARDTOWN*   CLOUDY    41  37  87 CALM      29.93R

$$

MDZ003>005-041200-
NORTH CENTRAL MARYLAND

CITY           SKY/WX    TMP DP  RH WIND       PRES   REMARKS
FREDERICK*     NOT AVBL
HAGERSTOWN APT CLOUDY    36  32  85 SE3       29.83R FOG
WESTMINSTER*   CLOUDY    37  34  87 SW7       29.82R

$$

MDZ501>502-041200-
WESTERN MARYLAND

CITY           SKY/WX    TMP DP  RH WIND       PRES   REMARKS
OAKLAND*       CLOUDY    37 N/A N/A W10G16    29.85R
CUMBERLAND*      N/A     36  36 100 MISG        N/A

$$

VAZ025>031-041200-
SHENANDOAH VALLEY

CITY           SKY/WX    TMP DP  RH WIND       PRES   REMARKS
WINCHESTER*    CLOUDY    43  37  81 SW6       29.83R
FRONT ROYAL*   CLOUDY    43  43 100 S6        29.83R
LURAY*         CLOUDY    46  46 100 S3        29.84R FOG
NEW MARKET*    CLOUDY    37  37  98 SW3       29.85R
STAUNTON*      FOG       43  41  95 CALM      29.87S VSB 1/4
WAYNESBORO*    CLOUDY    45  44  98 S5        29.87R

$$

WVZ021-048>050-054>055-041200-
EASTERN WEST VIRGINIA PANHANDLE

CITY           SKY/WX    TMP DP  RH WIND       PRES   REMARKS
MARTINSBURG    CLOUDY    37  34  89 NE3       29.84R FOG
PETERSBURG*    NOT AVBL

$$

VAZ036>039-050-041200-
CENTRAL FOOTHILLS

CITY           SKY/WX    TMP DP  RH WIND       PRES   REMARKS
CHARLOTTESVILL CLOUDY    40  37  89 S8        29.86S
CULPEPER*      CLOUDY    39  39 100 CALM      29.88R FOG
ORANGE*        DRIZZLE   41  39  93 CALM      29.89R
GORDONSVILLE*  CLOUDY    37  36  94 CALM      29.87S FOG
WARRENTON*     CLOUDY    39  39 100 SW5       29.87R FOG

$$

VAZ055>057-041200-
NORTH AND CENTRAL PIEDMONT

CITY           SKY/WX    TMP DP  RH WIND       PRES   REMARKS
FREDERICKSBRG* CLOUDY    42  42 100 S6        29.89S FOG
STAFFORD*      DRIZZLE   39  32  75 CALM      29.92S

$$

NCZ024-NYZ072-PAZ021-071-VAZ022-071-041200-
OTHER REGIONAL OBSERVATIONS

CITY           SKY/WX    TMP DP  RH WIND       PRES   REMARKS
NEW YORK CITY  MIX PCPN  36  32  85 CALM      29.81F FOG
PHILADELPHIA   DRIZZLE   34  33  96 W8        29.85R FOG     WCI  27
PITTSBURGH     LGT SNOW  33  33 100 S3        29.85S FOG
ROANOKE        CLOUDY    39  38  96 E5        29.89F FOG
RICHMOND       CLOUDY    51  48  89 SW10      29.90R
RALEIGH        FOG       42  40  92 SW8       30.01R VSB 1/8

$$

ANZ530>537-041200-
MARINE OBSERVATIONS

STATION/POSITION TIME  TEMP    WIND        PRES
                       AIR SEA DIR/SP/G
                 (UTC) (F)     (DEG/KT/KT) (MB)
THOMAS PT LIGHT  1100   36 32  210/  6/  7 1012.5R
BALT KEY BRIDGE  1000   38     220/  3/  4 1010.1R
COVE POINT       1000   41     350/  9/ 10 1011.6R
LEWISETTA        1000   45 33  280/  8/ 11 1011.5R
SOLOMONS ISLAND  1000      33                N/A

$$




USA.gov is the U.S. government's official web portal to all federal, state and local government web resources and services.